Wetbulb
41.42 42.00 42.88 43.10 43.22 43.19 42.95 43.16 43.35 44.19 44.66 44.14 43.76 44.62 45.20 47.20 47.93 48.16 47.74 48.17 48.52 49.05 48.67 48.78 48.32 49.19 50.39 50.78 52.45 56.32 57.78 58.38 61.51 61.37 61.31 62.35 64.65 63.66 63.25 63.05 61.90 60.09 60.15
40.09 41.59 41.98 41.48 41.90 41.62 41.95 42.44 43.26 43.61 43.79 43.66 43.98 44.72 45.08 48.48 48.80 48.41 48.39 48.50 48.53 48.86 48.88 48.32 48.31 48.14 49.02 49.46 51.19 52.48 52.74 55.98 58.52 57.87 57.42 54.74 58.97 62.22 62.26 62.31 61.34 58.95 60.02
39.78 40.55 40.79 40.70 40.72 40.41 40.97 42.26 42.77 42.99 43.02 43.33 44.07 45.16 47.20 48.07 48.35 47.87 47.69 47.95 48.31 48.50 48.61 48.59 47.71 47.53 47.91 48.03 48.43 51.06 52.14 51.05 54.33 58.82 56.79 52.22 52.06 55.63 59.38 61.25 60.86 60.65 59.25
39.73 40.23 40.79 40.33 40.01 40.54 41.07 41.42 42.16 42.19 42.87 42.98 42.52 42.16 42.49 43.72 46.82 47.90 48.66 48.67 48.68 48.05 48.50 48.71 48.37 47.80 47.86 46.98 47.57 50.41 50.80 51.54 51.19 54.25 58.88 58.78 54.62 52.92 51.23 55.13 59.39 60.07 59.56
39.27 40.07 40.69 41.10 41.17 41.13 40.32 40.51 40.69 41.02 41.74 41.81 41.69 41.22 40.72 41.11 43.11 45.86 47.08 47.53 47.87 47.54 47.67 48.30 48.35 48.03 48.30 47.92 47.37 47.97 49.83 51.86 51.63 52.28 54.06 56.43 58.14 58.12 54.90 52.01 51.93 56.99 59.26
39.02 39.52 40.69 41.10 40.49 40.36 39.98 39.59 39.51 39.38 40.00 40.17 40.39 39.81 39.07 39.05 39.46 40.74 43.05 44.88 46.88 47.61 47.14 47.08 47.22 47.79 48.10 48.01 48.04 48.42 49.09 50.36 51.75 52.81 53.33 54.16 53.90 54.09 54.26 53.47 52.39 52.23 54.96
37.70 38.26 38.75 39.43 40.14 39.99 39.73 39.28 38.71 37.44 37.90 37.92 38.43 38.36 38.13 38.45 38.26 39.35 39.69 39.97 44.14 46.48 47.03 46.21 46.00 46.37 46.79 47.42 47.96 47.78 48.41 48.91 49.53 50.35 51.47 54.03 54.60 55.48 54.50 53.53 52.22 51.89 52.41
37.49 37.95 38.73 39.19 39.55 40.12 39.47 38.44 37.08 35.72 35.88 35.99 36.34 37.15 36.62 38.23 39.64 40.03 40.37 39.81 41.24 43.77 47.03 48.44 47.03 46.94 47.28 47.44 47.27 47.39 47.76 48.44 49.26 49.55 50.76 51.93 53.29 54.99 55.18 54.40 53.48 50.32 49.52
37.45 38.24 39.43 39.93 39.96 39.42 38.61 37.64 36.07 34.09 34.44 34.96 35.54 35.48 36.48 37.78 39.39 40.34 40.79 40.61 41.08 44.13 46.75 48.63 47.53 46.95 46.82 47.16 47.26 47.70 47.92 48.83 49.39 49.85 50.69 51.45 52.52 53.54 54.97 55.27 54.96 52.72 49.37
37.37 38.32 39.25 39.58 40.17 39.80 38.19 36.94 35.10 33.15 33.80 34.65 34.92 35.79 36.19 38.08 40.02 40.42 40.32 41.19 42.12 43.85 45.66 46.81 47.09 46.86 46.83 46.90 46.68 46.82 47.49 48.47 49.88 51.20 51.21 51.86 52.74 53.11 53.82 54.48 54.49 54.03 52.24
37.46 38.69 39.05 39.77 40.02 38.44 37.02 35.72 33.62 32.64 32.60 33.57 34.25 34.58 35.82 38.04 39.57 40.11 41.01 41.42 43.00 42.93 43.44 45.31 45.96 46.25 46.39 46.52 46.14 46.50 47.27 47.49 48.88 50.49 51.26 51.64 52.59 52.43 53.49 54.20 54.06 53.34 53.03
38.74 38.52 37.72 38.74 38.78 37.53 36.46 34.59 31.88 31.28 31.85 32.96 33.11 33.77 35.68 37.88 38.87 40.09 41.72 43.57 44.42 45.00 43.82 45.83 45.83 45.80 45.90 46.03 45.62 45.61 46.63 46.77 47.52 48.96 49.57 50.49 51.90 51.85 52.67 53.49 53.35 53.38 53.45
37.04 36.32 36.82 38.17 38.22 36.94 35.44 32.67 30.45 30.81 31.97 32.66 32.26 33.05 34.19 35.92 38.11 39.88 41.82 43.68 46.29 46.87 46.71 45.99 46.24 46.53 45.92 45.44 45.67 46.22 46.59 46.86 47.42 48.31 48.59 49.96 51.00 50.84 52.00 52.47 52.44 52.95 53.14
35.74 35.82 36.60 37.71 37.62 36.48 34.79 31.46 30.11 30.95 31.65 31.95 31.70 31.37 32.38 34.12 36.69 39.63 41.42 42.33 43.53 43.99 43.35 43.81 45.08 45.21 46.73 44.91 44.35 45.18 45.72 47.16 48.26 49.10 49.59 50.74 51.06 50.91 50.98 51.52 51.98 52.44 52.34
35.16 35.62 36.70 37.50 36.85 35.44 34.30 30.98 29.73 30.50 30.92 30.53 30.27 30.44 31.64 33.10 35.04 37.85 40.20 40.98 41.24 41.22 41.33 41.12 42.07 43.03 44.84 44.00 43.77 44.00 44.61 45.39 46.38 48.90 49.34 49.97 50.16 49.17 51.01 51.94 51.49 51.54 51.73
35.21 35.91 36.53 37.57 36.96 35.74 34.42 31.06 29.21 29.64 30.36 29.45 29.36 30.62 30.98 31.57 32.98 34.83 37.18 38.42 38.63 39.03 39.26 38.43 38.55 39.34 40.58 42.46 43.26 43.08 42.18 42.80 44.43 45.90 47.25 47.97 47.18 48.55 50.06 50.89 51.04 52.22 50.79
35.00 35.61 35.83 37.12 36.69 35.40 34.28 30.24 28.78 29.27 28.94 28.96 29.20 29.56 29.90 30.27 31.11 32.46 34.18 34.60 35.46 36.14 35.72 36.14 36.44 36.39 37.41 40.67 42.03 43.03 42.33 41.98 43.65 46.25 47.93 48.70 48.64 48.50 50.31 50.79 50.52 50.08 50.20
34.67 35.19 36.02 36.68 35.82 34.32 31.22 28.88 27.78 27.71 27.93 28.10 28.52 28.54 28.70 28.92 29.98 30.27 30.30 31.03 32.79 33.06 34.31 34.43 33.79 33.66 36.20 39.28 41.47 42.33 41.19 41.47 42.11 45.93 47.65 49.27 49.65 49.44 49.41 49.89 50.41 47.78 45.45
35.21 35.32 36.47 36.42 34.85 33.46 30.79 27.83 27.09 27.07 26.85 26.96 27.20 27.86 27.73 27.70 28.05 28.08 27.99 28.92 30.08 30.55 30.49 30.99 30.03 29.79 33.38 37.86 41.81 41.88 41.13 42.54 43.03 43.02 43.41 43.85 43.74 44.88 46.18 47.56 45.75 42.31 41.72
35.76 36.98 36.96 35.58 34.19 34.18 30.42 27.23 27.10 26.24 26.15 26.87 27.33 27.92 27.25 26.97 26.29 26.15 26.62 27.50 27.59 28.92 29.03 27.65 25.97 30.62 29.58 36.60 41.03 41.08 39.93 40.25 39.27 39.46 39.99 42.25 42.68 43.49 46.39 45.93 44.33 40.84 39.66
36.02 35.58 35.09 34.94 35.39 33.78 29.68 27.78 27.12 26.63 27.99 27.94 28.25 28.10 26.86 26.09 26.13 25.51 25.76 25.78 26.26 26.48 25.80 27.01 26.94 27.63 30.68 33.91 39.61 40.39 37.59 36.62 35.66 35.65 36.94 38.48 40.57 41.20 41.78 41.14 39.34 38.99 38.79
35.56 35.43 34.98 35.32 35.57 33.84 29.67 28.86 27.88 30.47 28.60 27.65 28.18 27.41 25.68 26.29 27.43 24.14 24.32 24.28 24.24 24.06 24.08 24.88 26.17 27.07 28.05 34.11 35.63 38.90 38.97 37.35 34.35 33.44 34.75 36.12 37.58 37.62 37.99 37.76 38.67 37.63 35.47
34.92 34.84 34.34 34.38 34.99 34.14 31.30 30.34 32.84 29.37 28.19 26.71 26.74 26.05 25.85 25.64 25.84 23.54 23.60 23.48 23.59 23.09 23.54 25.87 25.05 26.02 28.04 28.27 34.23 33.89 35.41 36.44 34.42 34.69 34.70 34.47 34.00 33.78 33.08 35.20 34.55 33.11 31.21
34.54 34.40 33.95 33.54 33.52 33.50 33.00 32.18 31.94 29.32 27.76 26.35 26.23 25.89 24.28 23.84 23.26 26.26 25.97 22.78 23.14 23.43 25.66 25.87 25.43 24.88 26.70 29.73 31.56 28.66 27.34 30.66 29.05 29.85 30.42 31.24 31.21 31.63 30.46 29.51 29.59 29.80 30.12
33.86 34.62 33.91 33.55 34.49 33.88 34.56 33.89 31.35 28.46 27.66 26.62 26.19 25.74 25.67 24.48 24.71 24.88 23.23 22.56 24.19 27.00 25.97 25.21 25.78 24.82 26.76 30.25 32.48 32.20 30.15 28.24 29.60 28.07 27.31 26.88 26.56 26.15 26.11 26.48 27.31 28.14 27.47
34.54 33.85 33.75 33.85 35.10 34.84 35.00 34.66 32.17 29.26 28.80 28.00 27.24 26.88 25.46 23.81 25.20 23.79 23.34 30.29 32.78 32.79 32.31 32.23 29.79 28.43 31.09 32.06 32.10 31.92 31.67 31.47 31.33 26.52 24.95 24.61 25.08 24.55 24.61 24.40 24.66 26.03 26.16
MSLP
1020.64 1020.64 1020.53 1020.41 1020.23 1019.96 1019.81 1019.53 1019.17 1018.80 1018.48 1018.01 1017.55 1016.96 1016.58 1016.04 1015.56 1015.01 1014.57 1014.19 1013.81 1013.55 1013.42 1013.41 1013.32 1013.35 1013.42 1013.38 1013.40 1013.43 1013.33 1012.99 1012.96 1013.03 1012.79 1012.39 1012.48 1012.57 1012.85 1012.99 1013.11 1012.97 1013.22
1020.63 1020.39 1020.33 1020.27 1020.17 1019.98 1019.70 1019.36 1019.01 1018.67 1018.36 1018.10 1017.63 1017.23 1016.56 1015.72 1015.25 1014.73 1014.30 1013.86 1013.38 1013.05 1012.86 1012.80 1012.75 1012.75 1012.80 1012.84 1012.93 1013.06 1012.97 1012.61 1012.70 1012.68 1012.68 1012.34 1012.15 1011.81 1011.77 1011.71 1012.25 1012.38 1012.59
1020.56 1020.25 1020.17 1020.18 1020.04 1019.89 1019.60 1019.26 1018.83 1018.45 1018.13 1017.79 1017.42 1016.82 1016.15 1015.47 1014.76 1014.27 1013.90 1013.38 1012.97 1012.59 1012.34 1012.04 1012.11 1012.17 1012.19 1012.16 1012.26 1012.44 1012.57 1012.33 1012.05 1012.03 1012.16 1011.74 1011.41 1011.43 1011.11 1011.04 1011.25 1011.24 1011.64
1020.10 1019.93 1019.78 1019.71 1019.71 1019.46 1019.22 1018.91 1018.56 1018.21 1017.86 1017.53 1017.28 1016.96 1016.31 1015.52 1014.76 1014.08 1013.50 1013.03 1012.52 1012.15 1011.77 1011.51 1011.49 1011.51 1011.49 1011.54 1011.61 1011.77 1011.91 1012.06 1011.70 1011.62 1011.09 1010.92 1010.87 1011.01 1011.10 1010.94 1010.68 1010.86 1010.90
1019.77 1019.65 1019.44 1019.28 1019.06 1018.98 1018.90 1018.59 1018.25 1017.99 1017.56 1017.30 1016.96 1016.68 1016.31 1015.52 1014.83 1013.90 1013.19 1012.61 1012.23 1011.73 1011.29 1011.07 1011.09 1011.03 1011.13 1011.13 1011.16 1011.21 1011.17 1010.94 1011.04 1011.11 1010.83 1010.41 1010.17 1010.26 1010.71 1010.78 1010.77 1010.67 1010.39
1019.26 1019.10 1018.91 1018.77 1018.60 1018.50 1018.42 1018.19 1017.95 1017.48 1017.19 1017.03 1016.37 1016.46 1016.04 1015.39 1014.87 1014.11 1013.31 1012.57 1011.93 1011.38 1010.90 1010.53 1010.65 1010.45 1010.51 1010.53 1010.37 1010.53 1010.49 1010.51 1010.30 1010.29 1010.19 1009.92 1009.64 1009.43 1009.66 1009.82 1010.08 1010.09 1009.71
1018.74 1018.62 1018.59 1018.38 1018.17 1018.10 1018.04 1017.88 1017.71 1017.16 1017.07 1016.62 1016.27 1016.14 1015.72 1015.29 1014.68 1014.01 1013.32 1012.78 1011.88 1011.01 1010.42 1010.30 1010.12 1010.03 1009.85 1009.80 1009.76 1009.73 1009.65 1009.77 1009.76 1009.68 1009.47 1009.21 1008.86 1008.85 1008.84 1009.08 1009.25 1009.56 1009.19
1018.38 1018.27 1018.13 1017.97 1017.91 1017.80 1017.68 1017.84 1017.84 1017.28 1016.90 1016.46 1016.06 1015.64 1015.20 1014.71 1014.10 1013.57 1013.06 1012.53 1011.89 1011.15 1010.45 1010.01 1009.75 1009.51 1009.38 1009.28 1009.25 1009.23 1009.19 1009.23 1009.03 1008.92 1008.64 1008.51 1008.23 1008.11 1008.18 1008.33 1008.80 1008.96 1009.01
1017.93 1017.85 1017.72 1017.64 1017.53 1017.49 1017.60 1017.83 1017.66 1017.22 1016.77 1016.24 1015.79 1015.33 1015.07 1014.43 1013.67 1013.20 1012.88 1012.28 1011.60 1010.85 1010.12 1009.60 1009.24 1009.05 1008.90 1008.76 1008.72 1008.71 1008.65 1008.50 1008.30 1008.15 1007.95 1007.64 1007.41 1007.44 1007.38 1007.49 1007.81 1008.07 1008.42
1017.64 1017.49 1017.36 1017.14 1017.06 1017.06 1017.22 1017.49 1017.13 1016.72 1016.42 1016.18 1015.81 1015.31 1014.77 1014.04 1013.49 1012.99 1012.42 1011.79 1011.03 1010.46 1009.93 1009.37 1008.94 1008.64 1008.39 1008.21 1008.11 1007.97 1007.87 1007.72 1007.48 1007.17 1007.11 1006.92 1006.62 1006.54 1006.53 1006.70 1006.89 1007.21 1007.59
1017.26 1017.23 1017.05 1016.82 1016.67 1016.76 1016.99 1016.92 1016.62 1016.47 1016.33 1016.11 1015.61 1015.12 1014.39 1013.73 1013.10 1012.53 1011.95 1011.35 1010.59 1010.05 1009.53 1009.09 1008.64 1008.25 1007.90 1007.69 1007.60 1007.46 1007.28 1007.14 1006.82 1006.47 1006.19 1005.84 1005.62 1005.59 1005.61 1005.67 1005.99 1006.32 1006.66
1017.07 1016.87 1016.54 1016.33 1016.38 1016.52 1016.54 1016.61 1016.60 1016.77 1016.51 1015.89 1015.48 1015.00 1014.19 1013.43 1012.75 1012.12 1011.44 1010.68 1010.02 1009.65 1009.33 1008.75 1008.21 1007.80 1007.49 1007.20 1007.02 1006.96 1006.77 1006.56 1006.10 1005.65 1005.33 1004.97 1004.78 1004.73 1004.74 1004.89 1005.07 1005.33 1005.66
1016.55 1016.35 1016.21 1016.06 1015.98 1016.11 1016.29 1016.41 1016.51 1016.51 1016.24 1015.76 1015.45 1014.97 1014.18 1013.40 1012.74 1011.98 1011.35 1010.57 1009.87 1009.31 1008.91 1008.56 1007.97 1007.51 1007.03 1006.76 1006.57 1006.34 1006.12 1005.99 1005.53 1005.02 1004.54 1004.03 1003.95 1004.04 1004.04 1004.16 1004.34 1004.56 1004.92
1016.33 1016.11 1015.85 1015.67 1015.61 1015.76 1016.03 1016.23 1016.20 1015.97 1015.90 1015.68 1015.31 1014.85 1014.18 1013.57 1012.89 1012.08 1011.31 1010.65 1010.12 1009.61 1009.21 1008.76 1008.25 1007.76 1007.08 1006.89 1006.66 1006.28 1005.96 1005.51 1004.87 1004.22 1003.66 1003.24 1003.37 1003.34 1003.22 1003.37 1003.54 1003.81 1004.25
1015.42 1015.23 1015.05 1015.00 1015.09 1015.20 1015.38 1015.69 1015.83 1015.84 1015.53 1015.33 1014.90 1014.48 1014.08 1013.56 1012.90 1012.26 1011.55 1010.95 1010.45 1009.97 1009.52 1009.03 1008.56 1008.08 1007.50 1007.19 1006.86 1006.50 1005.90 1005.27 1004.58 1003.85 1003.18 1002.89 1002.58 1002.51 1002.65 1002.73 1002.93 1003.26 1003.70
1014.78 1014.19 1014.51 1014.40 1014.45 1014.64 1014.83 1015.04 1015.13 1015.10 1014.96 1014.85 1014.63 1014.36 1013.95 1013.62 1013.05 1012.30 1011.83 1011.34 1010.86 1010.41 1009.87 1009.35 1008.93 1008.52 1008.13 1007.74 1007.30 1006.59 1005.89 1005.28 1004.59 1003.73 1003.09 1002.69 1002.48 1002.29 1002.43 1002.55 1002.50 1002.60 1003.10
1014.13 1013.97 1013.76 1013.57 1013.63 1013.79 1014.00 1014.28 1014.35 1014.63 1014.77 1014.80 1014.54 1014.30 1013.96 1013.55 1013.20 1012.66 1012.08 1011.66 1011.28 1010.76 1010.32 1010.03 1009.68 1009.10 1008.47 1007.81 1007.27 1006.49 1005.77 1005.07 1004.31 1003.65 1003.08 1002.62 1002.35 1002.23 1002.10 1002.10 1002.30 1002.63 1003.05
1013.14 1013.06 1013.08 1013.11 1013.21 1013.32 1013.69 1013.73 1014.02 1014.25 1014.25 1014.26 1014.32 1014.17 1013.92 1013.60 1013.23 1012.81 1012.33 1011.93 1011.54 1011.11 1010.63 1010.26 1010.01 1009.40 1008.61 1007.84 1006.92 1005.86 1005.04 1004.37 1003.93 1003.31 1002.86 1002.50 1002.31 1002.07 1002.09 1002.18 1002.27 1002.63 1003.15
1012.28 1012.16 1012.13 1012.34 1012.66 1013.08 1013.24 1013.53 1013.73 1013.74 1013.82 1013.85 1013.62 1013.55 1013.54 1013.38 1013.17 1012.89 1012.50 1012.12 1011.72 1011.26 1010.88 1010.56 1010.23 1009.69 1008.81 1007.93 1006.48 1005.42 1004.59 1003.88 1003.62 1003.46 1003.16 1002.74 1002.74 1002.73 1002.60 1002.45 1002.58 1003.11 1003.56
1011.71 1011.62 1011.57 1011.69 1011.90 1011.78 1012.48 1013.22 1013.42 1013.47 1013.31 1012.97 1012.90 1013.03 1013.21 1013.21 1012.96 1012.71 1012.41 1012.12 1011.84 1011.38 1010.93 1010.62 1010.28 1009.80 1009.17 1008.09 1006.66 1005.62 1004.86 1004.48 1004.46 1004.30 1004.14 1003.87 1003.34 1002.83 1002.38 1002.47 1002.76 1003.14 1003.60
1011.31 1011.22 1011.32 1011.61 1011.36 1011.42 1011.78 1012.22 1012.54 1012.67 1012.36 1012.31 1012.36 1012.44 1012.38 1012.38 1012.42 1012.51 1012.32 1012.17 1011.93 1011.56 1011.17 1010.73 1010.31 1009.84 1009.25 1008.48 1007.35 1006.40 1005.84 1005.61 1005.50 1005.45 1005.19 1004.97 1004.60 1004.06 1003.40 1003.01 1003.22 1003.57 1003.97
1010.55 1010.69 1010.82 1010.67 1010.46 1010.96 1011.58 1011.57 1011.52 1010.97 1011.48 1011.84 1012.09 1012.11 1012.08 1012.06 1012.10 1012.06 1011.86 1011.63 1011.47 1011.52 1011.33 1011.04 1010.58 1010.05 1009.50 1008.89 1008.19 1007.37 1006.82 1006.56 1006.41 1006.35 1006.24 1006.06 1005.74 1005.40 1005.02 1004.57 1004.64 1004.54 1004.87
1009.81 1009.80 1009.95 1010.01 1010.07 1010.26 1010.59 1010.76 1010.02 1010.53 1011.03 1011.40 1011.59 1011.77 1012.04 1012.19 1012.01 1012.27 1012.24 1012.08 1011.63 1011.31 1011.22 1010.94 1010.79 1010.35 1009.74 1009.12 1008.65 1008.36 1007.90 1007.51 1007.33 1007.26 1007.17 1006.97 1006.66 1006.44 1006.24 1006.00 1005.89 1005.89 1005.87
1008.94 1008.96 1009.36 1009.46 1009.35 1009.50 1009.91 1009.80 1009.75 1009.98 1010.28 1010.62 1011.00 1011.40 1011.75 1011.93 1012.13 1012.12 1012.06 1012.05 1011.85 1011.49 1010.90 1010.74 1010.65 1010.49 1009.94 1009.29 1008.81 1008.77 1008.59 1008.40 1008.32 1008.22 1008.03 1007.91 1007.75 1007.41 1007.31 1007.03 1006.96 1007.07 1007.08
1008.47 1008.44 1008.55 1008.86 1008.61 1008.70 1008.78 1008.93 1009.25 1009.62 1009.85 1010.16 1010.44 1010.71 1011.00 1011.04 1011.60 1011.93 1012.06 1011.97 1011.65 1011.35 1011.00 1010.70 1010.45 1010.29 1009.88 1009.43 1009.13 1008.80 1008.70 1008.69 1008.39 1008.41 1008.45 1008.47 1008.36 1008.30 1008.29 1008.26 1008.23 1008.14 1008.16
1007.93 1008.05 1007.97 1008.08 1007.92 1007.97 1007.95 1008.07 1008.41 1008.78 1009.18 1009.47 1009.51 1009.85 1010.33 1010.70 1010.71 1011.07 1011.34 1011.20 1011.24 1010.99 1010.67 1010.42 1010.25 1010.05 1009.68 1009.31 1009.20 1009.12 1008.83 1008.69 1008.64 1008.81 1008.76 1008.77 1008.83 1009.02 1009.11 1009.12 1009.11 1009.04 1009.02
Wind_Speed
5 5 5 5 6 5 6 6 8 8 6 7 7 5 6 7 7 6 8 9 8 9 8 7 5 5 6 6 7 7 9 9 6 7 6 5 7 8 9 8 8 10 11
6 5 5 5 5 6 6 6 6 7 6 4 5 4 6 7 9 8 10 10 11 10 9 8 7 6 6 6 6 7 9 9 4 6 3 4 3 8 9 9 9 10 7
8 6 5 5 6 7 7 7 7 7 6 6 6 6 7 7 7 6 7 7 9 9 9 9 6 6 6 7 6 7 9 10 8 8 7 3 6 2 3 11 11 12 9
7 6 6 6 6 7 6 7 7 7 7 6 5 7 7 9 8 8 9 9 10 10 9 9 8 8 6 7 6 6 8 7 11 6 9 12 4 4 2 2 7 9 10
7 8 7 7 7 6 6 6 7 7 7 6 5 5 7 6 8 8 11 10 9 9 10 8 8 7 6 6 6 6 7 8 10 10 8 10 10 11 10 10 3 3 6
7 7 7 6 7 6 6 6 7 6 7 7 6 7 8 9 9 8 8 8 9 8 8 7 7 7 6 7 6 8 9 9 10 9 10 11 9 10 8 9 8 5 5
7 8 8 7 7 7 7 6 7 10 7 7 6 7 8 8 10 9 8 11 9 9 9 6 6 6 8 8 8 7 9 9 9 11 10 10 12 10 7 9 10 8 5
7 7 8 7 8 7 6 7 8 9 8 7 8 7 8 7 7 9 9 9 9 10 12 11 8 8 8 7 7 6 7 8 9 13 12 10 10 9 10 11 7 5 4
8 8 7 7 7 6 7 6 8 7 7 9 8 9 10 10 10 11 11 9 11 10 11 11 10 9 8 8 7 7 8 8 10 11 11 11 10 9 9 8 9 10 8
8 8 7 8 6 6 5 7 6 6 7 9 8 9 11 10 10 10 12 11 10 10 10 11 10 9 8 8 8 7 8 9 9 9 11 11 10 10 8 8 8 7 8
7 8 7 7 6 5 5 6 6 6 7 8 8 10 10 11 10 9 10 10 10 9 9 10 10 10 9 8 8 9 10 10 11 11 13 14 13 9 8 8 8 7 7
8 8 8 7 6 6 5 6 6 6 6 7 7 10 10 10 10 10 10 10 11 10 9 10 10 10 10 9 8 9 10 10 11 12 12 14 10 11 10 8 10 8 7
10 9 7 7 7 6 5 5 5 6 6 7 6 9 9 10 12 11 11 11 10 8 9 11 11 9 8 6 6 8 9 10 11 13 14 13 9 8 7 8 8 7 5
11 9 8 7 7 6 5 6 6 4 5 6 6 7 8 9 10 11 11 10 9 9 9 9 10 10 7 5 6 6 8 9 11 12 12 9 8 9 9 8 9 6 7
8 9 8 7 7 7 6 5 5 5 4 5 6 6 6 7 8 10 11 10 9 8 8 9 9 9 7 6 9 9 9 9 12 9 7 7 8 10 9 5 5 6 6
11 9 7 8 8 7 7 5 5 6 3 5 6 6 6 7 7 7 8 10 10 10 9 8 9 9 8 16 20 15 11 11 10 10 6 5 7 7 10 10 9 10 7
10 9 9 8 7 7 6 6 6 4 4 5 6 6 6 7 7 7 7 7 8 8 8 9 10 9 8 17 21 21 10 11 9 8 7 6 4 5 5 6 6 2 3
10 9 7 7 7 4 5 5 4 4 4 5 5 5 5 6 7 6 6 6 4 5 6 7 8 9 8 19 24 22 12 10 8 8 5 4 6 3 4 5 2 5 5
8 8 6 6 4 6 6 5 5 5 5 6 6 5 4 5 6 7 7 6 4 4 5 5 6 8 9 20 23 18 10 7 2 4 5 4 4 6 5 4 6 7 7
7 8 7 6 6 7 6 5 7 6 7 6 5 4 3 4 6 6 6 4 4 4 4 5 4 10 9 18 23 17 8 7 5 7 8 16 9 6 3 5 6 7 6
9 7 6 7 9 5 7 8 6 9 7 5 5 4 4 3 3 4 3 4 5 5 5 5 5 6 9 11 22 20 8 6 6 7 6 6 15 16 14 12 7 5 7
8 8 7 7 7 7 6 8 9 8 6 6 5 5 5 3 2 2 3 3 3 4 5 6 5 4 5 15 16 19 16 13 7 5 5 8 18 19 18 12 14 14 9
8 6 7 7 7 6 8 8 11 6 6 5 6 5 4 4 2 2 4 3 4 3 4 4 5 6 6 4 14 16 15 15 7 5 8 12 13 15 13 20 18 14 7
8 5 6 7 9 6 7 12 6 6 6 7 6 5 4 5 4 3 2 1 2 3 2 2 3 4 5 6 7 4 4 9 7 8 7 9 11 15 12 10 10 7 6
6 4 6 7 10 6 7 7 7 6 7 6 5 5 4 5 4 4 4 3 4 4 2 2 1 2 4 5 9 8 4 2 3 3 3 4 5 6 7 7 7 5 6
5 5 6 6 9 7 7 6 7 8 8 7 6 6 4 4 4 4 4 7 10 7 5 5 3 2 5 7 8 9 7 7 7 3 3 4 5 5 6 5 5 5 6
Wind_Direction
252 282 302 324 329 321 325 326 324 327 327 330 326 321 311 308 299 285 269 270 265 259 254 249 234 222 227 232 231 249 259 261 256 260 267 245 240 218 226 221 226 211 210
275 276 305 318 316 308 311 312 310 315 323 314 305 289 297 292 297 286 285 278 272 262 254 251 239 221 234 233 230 237 256 258 231 249 227 250 244 214 214 206 216 217 201
262 278 286 287 297 301 298 302 296 295 297 294 307 301 303 296 303 300 292 278 266 263 251 248 228 226 223 236 217 231 242 258 249 218 221 240 222 179 207 217 216 213 201
248 261 272 283 289 285 293 292 290 286 287 294 291 301 307 308 309 299 299 291 284 273 261 246 238 231 219 221 215 218 237 245 257 252 236 242 169 220 271 276 229 221 215
235 256 263 263 278 285 292 292 291 284 278 281 278 289 287 296 299 305 306 303 292 277 267 253 249 240 240 245 228 231 229 228 243 251 252 242 234 231 239 258 272 237 219
253 257 264 265 268 274 286 291 291 287 294 283 287 281 284 297 302 303 309 307 298 292 272 256 248 245 238 231 225 223 231 239 247 246 247 246 242 231 223 231 226 216 218
277 281 282 281 272 281 292 293 305 307 293 295 295 286 286 278 287 302 303 305 297 293 284 263 249 242 238 235 228 223 230 233 238 246 250 251 247 245 231 224 235 234 229
258 272 274 270 269 274 296 304 294 299 307 303 303 304 307 300 293 300 296 296 292 292 295 286 266 256 245 234 233 238 238 240 239 241 240 248 251 248 244 238 222 228 239
265 278 293 265 275 280 269 285 292 293 306 316 310 316 304 299 304 305 297 290 291 291 291 288 267 260 252 248 242 241 240 236 239 243 242 239 245 249 242 237 236 240 242
279 277 284 279 265 259 276 269 281 307 310 305 304 308 300 295 302 301 292 285 281 282 293 293 277 270 259 251 246 250 247 242 245 243 240 239 240 236 229 225 225 221 234
280 290 279 263 255 257 256 283 311 320 307 296 307 306 301 301 308 306 298 292 293 295 286 285 279 270 265 257 252 254 253 250 251 246 242 238 234 235 226 220 221 216 208
276 284 283 274 263 255 278 294 309 298 287 293 309 305 305 315 317 315 311 313 303 299 284 285 274 265 257 250 241 253 261 255 253 251 249 245 241 234 230 217 219 208 192
292 286 278 261 256 257 260 278 286 289 298 308 315 307 312 324 322 322 319 322 332 320 332 328 314 289 266 259 252 245 256 259 260 262 257 246 233 235 229 217 212 201 192
281 285 289 268 260 256 258 270 280 279 295 300 305 301 317 319 318 321 321 325 335 336 342 338 328 334 331 9 350 328 299 285 277 269 248 235 221 223 220 213 206 192 197
268 261 259 263 250 248 245 245 266 285 283 298 302 300 308 313 317 328 332 331 335 340 341 344 339 341 333 360 337 315 302 292 290 282 261 246 227 225 224 200 207 195 199
269 267 273 256 247 238 240 238 248 263 270 295 300 306 313 313 315 325 333 341 343 346 346 352 344 340 336 328 332 325 306 293 286 295 298 287 265 242 237 237 218 193 188
262 272 263 240 235 232 226 234 233 251 289 297 302 310 316 320 322 323 332 341 342 344 348 345 343 337 328 331 329 323 302 289 280 285 295 304 299 290 269 266 243 256 323
258 259 255 257 254 227 225 233 230 253 271 281 294 307 318 317 320 320 330 326 322 333 339 336 337 329 329 334 332 328 306 279 265 265 284 282 286 249 234 234 181 106 68
252 250 238 230 235 236 230 222 247 239 252 276 276 285 311 321 324 329 328 318 329 325 332 333 335 327 327 336 339 342 316 290 1 27 20 26 16 350 312 256 142 117 97
254 261 252 234 225 229 198 219 255 259 258 255 257 270 301 316 316 317 316 305 309 312 326 326 329 338 329 342 360 4 355 23 32 34 37 36 33 29 274 195 170 158 154
271 269 253 247 247 207 184 218 229 246 246 246 240 250 244 263 275 312 306 321 329 333 341 339 335 338 350 346 2 16 17 25 33 25 22 28 37 42 57 74 65 82 104
268 267 258 252 250 208 193 229 233 236 219 225 240 247 242 251 273 288 310 321 353 347 344 339 341 337 342 3 6 15 33 41 42 40 32 40 46 45 44 52 66 76 72
258 245 229 264 270 223 198 225 242 192 219 220 237 243 252 263 249 294 326 335 354 10 343 354 345 339 338 341 17 15 14 31 47 43 46 45 47 49 45 47 49 43 44
253 244 245 256 265 238 223 233 241 197 199 216 224 233 236 251 255 276 244 278 312 331 351 356 350 332 335 356 4 24 18 26 33 27 33 40 48 54 48 46 42 36 48
268 233 239 253 260 255 240 232 224 189 209 216 220 223 217 213 227 242 244 244 251 224 269 284 283 324 344 341 356 358 8 18 33 53 35 30 31 33 38 44 31 38 36
265 274 265 258 268 253 254 241 209 193 208 222 212 213 210 215 203 209 264 259 256 269 276 293 250 250 314 339 343 356 360 7 13 23 39 52 48 37 31 32 34 39 36